When you browse on this site, cookies collect data to enhance your experience and personalize the content and advertising you see.
Visit our Privacy Policy to learn more. By continuing to use the site, you agree to this use of cookies and data.
  • In Deutschland
  • Länderverzeichnis
  • Für 7 Tage
  • Wassertemperatur
  • Wetterkarte
  • Widgets
  • user-avatar
    Anmelden

    Stündliche Wetter Nürnberg

    Heute, 15 September, Sonntag

    Zeit Temperatur Niederschläge Wind Luftdruck Luftfeuchtigkeit
    00:00 +15°C° 0 mm 1 m/S 742 mmHg 91%
    01:00 +14°C° 0 mm 1 m/S 742 mmHg 92%
    02:00 +14°C° 0 mm 1 m/S 742 mmHg 93%
    03:00 +14°C° 0 mm 1 m/S 741 mmHg 94%
    04:00 +14°C° 0 mm 1 m/S 741 mmHg 95%
    05:00 +14°C° 0 mm 1 m/S 741 mmHg 94%
    06:00 +15°C° 0 mm 1 m/S 741 mmHg 93%
    07:00 +15°C° 0 mm 1 m/S 741 mmHg 93%
    08:00 +18°C° 0 mm 1 m/S 741 mmHg 85%
    09:00 +20°C° 0 mm 1 m/S 741 mmHg 77%
    10:00 +23°C° 0 mm 1 m/S 741 mmHg 69%
    11:00 +24°C° 0 mm 2 m/S 740 mmHg 64%
    12:00 +25°C° 0 mm 2 m/S 740 mmHg 59%
    13:00 +26°C° 0 mm 2 m/S 740 mmHg 53%
    14:00 +26°C° 0 mm 2 m/S 739 mmHg 55%
    15:00 +26°C° 0 mm 2 m/S 739 mmHg 56%
    16:00 +26°C° 0 mm 3 m/S 739 mmHg 58%
    17:00 +24°C° 0 mm 2 m/S 738 mmHg 66%
    18:00 +21°C° 0 mm 2 m/S 738 mmHg 74%
    19:00 +20°C° 0 mm 1 m/S 738 mmHg 83%
    20:00 +19°C° 0 mm 1 m/S 738 mmHg 83%
    21:00 +18°C° 0 mm 1 m/S 738 mmHg 84%
    22:00 +16°C° 0 mm 1 m/S 738 mmHg 85%
    23:00 +16°C° 0 mm 1 m/S 738 mmHg 85%

    Morgen, 16 September, Montag

    Zeit Temperatur Niederschläge Wind Luftdruck Luftfeuchtigkeit
    00:00 +16°C° 0 mm 1 m/S 738 mmHg 85%
    01:00 +15°C° 0 mm 1 m/S 738 mmHg 85%
    02:00 +15°C° 0 mm 1 m/S 738 mmHg 85%
    03:00 +14°C° 0 mm 1 m/S 737 mmHg 86%
    04:00 +14°C° 0 mm 1 m/S 737 mmHg 87%
    05:00 +13°C° 0 mm 0 m/S 737 mmHg 86%
    06:00 +14°C° 0 mm 0 m/S 737 mmHg 85%
    07:00 +14°C° 0 mm 0 m/S 737 mmHg 84%
    08:00 +18°C° 0 mm 1 m/S 737 mmHg 74%
    09:00 +20°C° 0 mm 1 m/S 737 mmHg 64%
    10:00 +22°C° 0 mm 1 m/S 737 mmHg 55%
    11:00 +22°C° 0 mm 1 m/S 737 mmHg 53%
    12:00 +23°C° 0 mm 2 m/S 736 mmHg 52%
    13:00 +24°C° 0 mm 2 m/S 736 mmHg 50%
    14:00 +24°C° 0 mm 3 m/S 736 mmHg 53%
    15:00 +24°C° 0 mm 3 m/S 735 mmHg 55%
    16:00 +22°C° 0 mm 3 m/S 735 mmHg 57%
    17:00 +21°C° 0 mm 2 m/S 735 mmHg 61%
    18:00 +19°C° 0 mm 2 m/S 735 mmHg 65%
    19:00 +18°C° 0 mm 2 m/S 735 mmHg 70%
    20:00 +17°C° 0 mm 2 m/S 735 mmHg 71%
    21:00 +16°C° 0 mm 1 m/S 735 mmHg 72%
    22:00 +16°C° 0 mm 1 m/S 736 mmHg 74%
    23:00 +16°C° 0 mm 1 m/S 736 mmHg 77%

    übermorgen, 17 September, Dienstag

    Zeit Temperatur Niederschläge Wind Luftdruck Luftfeuchtigkeit
    00:00 +15°C° 0 mm 1 m/S 736 mmHg 80%
    01:00 +15°C° 0 mm 1 m/S 736 mmHg 83%
    02:00 +15°C° 0 mm 2 m/S 736 mmHg 85%
    03:00 +15°C° 0 mm 2 m/S 736 mmHg 87%
    04:00 +14°C° 0 mm 2 m/S 736 mmHg 90%
    05:00 +14°C° 0 mm 2 m/S 736 mmHg 87%
    06:00 +14°C° 0 mm 2 m/S 736 mmHg 85%
    07:00 +14°C° 0 mm 2 m/S 736 mmHg 82%
    08:00 +14°C° 0 mm 3 m/S 737 mmHg 75%
    09:00 +14°C° 0 mm 3 m/S 737 mmHg 69%
    10:00 +16°C° 0 mm 3 m/S 737 mmHg 62%
    11:00 +17°C° 0 mm 3 m/S 737 mmHg 58%
    12:00 +17°C° 0 mm 4 m/S 737 mmHg 55%
    13:00 +18°C° 0 mm 4 m/S 737 mmHg 51%
    14:00 +18°C° 0 mm 4 m/S 736 mmHg 51%
    15:00 +18°C° 0 mm 4 m/S 736 mmHg 52%
    16:00 +18°C° 0 mm 4 m/S 736 mmHg 52%
    17:00 +15°C° 0 mm 4 m/S 736 mmHg 58%
    18:00 +13°C° 0 mm 3 m/S 736 mmHg 64%
    19:00 +12°C° 0 mm 2 m/S 737 mmHg 71%
    20:00 +12°C° 0 mm 2 m/S 737 mmHg 73%
    21:00 +10°C° 0 mm 2 m/S 738 mmHg 76%
    22:00 +9°C° 0 mm 2 m/S 738 mmHg 79%
    23:00 +9°C° 0 mm 1 m/S 739 mmHg 80%

    18 September, Mittwoch

    Zeit Temperatur Niederschläge Wind Luftdruck Luftfeuchtigkeit
    00:00 +9°C° 0 mm 1 m/S 739 mmHg 81%
    01:00 +8°C° 0 mm 1 m/S 739 mmHg 83%
    02:00 +8°C° 0 mm 1 m/S 739 mmHg 84%
    03:00 +7°C° 0 mm 1 m/S 739 mmHg 86%
    04:00 +6°C° 0 mm 1 m/S 739 mmHg 88%
    05:00 +7°C° 0 mm 1 m/S 739 mmHg 86%
    06:00 +7°C° 0 mm 1 m/S 739 mmHg 84%
    07:00 +6°C° 0 mm 0 m/S 739 mmHg 82%
    08:00 +9°C° 0 mm 1 m/S 739 mmHg 74%
    09:00 +11°C° 0 mm 1 m/S 740 mmHg 65%
    10:00 +13°C° 0 mm 1 m/S 740 mmHg 56%
    11:00 +14°C° 0 mm 2 m/S 739 mmHg 52%
    12:00 +15°C° 0 mm 2 m/S 739 mmHg 47%
    13:00 +16°C° 0 mm 2 m/S 739 mmHg 43%
    14:00 +16°C° 0 mm 2 m/S 739 mmHg 45%
    15:00 +16°C° 0 mm 3 m/S 738 mmHg 46%
    16:00 +14°C° 0 mm 3 m/S 738 mmHg 48%
    17:00 +13°C° 0 mm 3 m/S 738 mmHg 55%
    18:00 +12°C° 0 mm 2 m/S 739 mmHg 61%
    19:00 +9°C° 0 mm 2 m/S 739 mmHg 68%
    20:00 +8°C° 0 mm 2 m/S 739 mmHg 70%
    21:00 +8°C° 0 mm 1 m/S 740 mmHg 71%
    22:00 +7°C° 0 mm 1 m/S 740 mmHg 73%
    23:00 +7°C° 0 mm 1 m/S 740 mmHg 75%

    19 September, Donnerstag

    Zeit Temperatur Niederschläge Wind Luftdruck Luftfeuchtigkeit
    00:00 +7°C° 0 mm 1 m/S 740 mmHg 77%
    01:00 +6°C° 0 mm 1 m/S 740 mmHg 79%
    02:00 +6°C° 0 mm 1 m/S 740 mmHg 82%
    03:00 +6°C° 0 mm 1 m/S 740 mmHg 86%
    04:00 +5°C° 0 mm 1 m/S 740 mmHg 89%
    05:00 +6°C° 0 mm 1 m/S 740 mmHg 89%
    06:00 +6°C° 0 mm 1 m/S 741 mmHg 88%
    07:00 +6°C° 0 mm 1 m/S 741 mmHg 88%
    08:00 +8°C° 0 mm 1 m/S 741 mmHg 78%
    09:00 +9°C° 0 mm 2 m/S 742 mmHg 68%
    10:00 +12°C° 0 mm 2 m/S 742 mmHg 58%
    11:00 +13°C° 0 mm 2 m/S 742 mmHg 55%
    12:00 +13°C° 0 mm 2 m/S 742 mmHg 51%
    13:00 +14°C° 0 mm 2 m/S 742 mmHg 47%
    14:00 +14°C° 0 mm 2 m/S 742 mmHg 49%
    15:00 +14°C° 0 mm 2 m/S 742 mmHg 50%
    16:00 +14°C° 0 mm 2 m/S 742 mmHg 52%
    17:00 +12°C° 0 mm 2 m/S 742 mmHg 57%
    18:00 +10°C° 0 mm 2 m/S 742 mmHg 62%
    19:00 +10°C° 0 mm 1 m/S 743 mmHg 67%
    20:00 +9°C° 0 mm 1 m/S 743 mmHg 70%
    21:00 +8°C° 0 mm 1 m/S 744 mmHg 72%
    22:00 +7°C° 0 mm 1 m/S 744 mmHg 75%
    23:00 +7°C° 0 mm 1 m/S 744 mmHg 77%

    20 September, Freitag

    Zeit Temperatur Niederschläge Wind Luftdruck Luftfeuchtigkeit
    00:00 +6°C° 0 mm 1 m/S 744 mmHg 79%
    01:00 +5°C° 0 mm 0 m/S 744 mmHg 81%
    02:00 +4°C° 0 mm 0 m/S 744 mmHg 83%
    03:00 +4°C° 0 mm 0 m/S 744 mmHg 84%
    04:00 +4°C° 0 mm 0 m/S 744 mmHg 86%
    05:00 +4°C° 0 mm 0 m/S 745 mmHg 84%
    06:00 +6°C° 0 mm 1 m/S 745 mmHg 82%
    07:00 +6°C° 0 mm 1 m/S 745 mmHg 81%
    08:00 +9°C° 0 mm 1 m/S 745 mmHg 70%
    09:00 +11°C° 0 mm 1 m/S 745 mmHg 60%
    10:00 +14°C° 0 mm 2 m/S 746 mmHg 50%
    11:00 +14°C° 0 mm 2 m/S 745 mmHg 45%
    12:00 +15°C° 0 mm 2 m/S 745 mmHg 40%
    13:00 +16°C° 0 mm 2 m/S 744 mmHg 35%
    14:00 +16°C° 0 mm 2 m/S 744 mmHg 36%
    15:00 +16°C° 0 mm 2 m/S 743 mmHg 36%
    16:00 +16°C° 0 mm 2 m/S 743 mmHg 37%
    17:00 +14°C° 0 mm 2 m/S 743 mmHg 44%
    18:00 +12°C° 0 mm 2 m/S 743 mmHg 50%
    19:00 +10°C° 0 mm 1 m/S 742 mmHg 57%
    20:00 +9°C° 0 mm 1 m/S 742 mmHg 60%
    21:00 +8°C° 0 mm 1 m/S 742 mmHg 63%
    22:00 +8°C° 0 mm 1 m/S 742 mmHg 66%
    23:00 +7°C° 0 mm 1 m/S 742 mmHg 68%
    Mehr zeigen